• In Russia
  • List of Countries
  • For 7 days
  • Water Temperature
  • Satellite Maps
  • Weather Map
  • Weather Widgets
  • user-avatar
    Login

    Hourly Weather Tirana

    Today, 22 February, Wednesday

    Time Temperature Precipitation Wind Pressure Humidity
    00:00 +5°C° 0 mm 1 mps 756 mmHg 73%
    01:00 +5°C° 0 mm 1 mps 756 mmHg 71%
    02:00 +5°C° 0 mm 1 mps 756 mmHg 72%
    03:00 +5°C° 0 mm 1 mps 756 mmHg 72%
    04:00 +5°C° 0 mm 1 mps 756 mmHg 73%
    05:00 +5°C° 0 mm 1 mps 756 mmHg 74%
    06:00 +5°C° 0 mm 1 mps 756 mmHg 74%
    07:00 +7°C° 0 mm 1 mps 757 mmHg 74%
    08:00 +9°C° 0 mm 1 mps 757 mmHg 68%
    09:00 +11°C° 0 mm 1 mps 757 mmHg 63%
    10:00 +13°C° 0 mm 1 mps 757 mmHg 57%
    11:00 +14°C° 0 mm 1 mps 757 mmHg 57%
    12:00 +15°C° 0 mm 1 mps 756 mmHg 57%
    13:00 +16°C° 0 mm 1 mps 756 mmHg 57%
    14:00 +15°C° 0 mm 1 mps 756 mmHg 61%
    15:00 +15°C° 0 mm 1 mps 756 mmHg 66%
    16:00 +14°C° 0 mm 1 mps 756 mmHg 71%
    17:00 +12°C° 0 mm 1 mps 756 mmHg 77%
    18:00 +10°C° 0 mm 1 mps 756 mmHg 84%
    19:00 +7°C° 0 mm 0 mps 756 mmHg 91%
    20:00 +8°C° 0 mm 1 mps 756 mmHg 91%
    21:00 +8°C° 0 mm 1 mps 757 mmHg 91%
    22:00 +7°C° 0 mm 2 mps 757 mmHg 90%
    23:00 +6°C° 0 mm 2 mps 757 mmHg 90%

    Tomorrow, 23 February, Thursday

    Time Temperature Precipitation Wind Pressure Humidity
    00:00 +6°C° 0 mm 2 mps 757 mmHg 90%
    01:00 +6°C° 0 mm 2 mps 757 mmHg 89%
    02:00 +6°C° 0 mm 2 mps 757 mmHg 89%
    03:00 +6°C° 0 mm 2 mps 757 mmHg 89%
    04:00 +6°C° 0 mm 2 mps 756 mmHg 88%
    05:00 +6°C° 0 mm 2 mps 757 mmHg 87%
    06:00 +5°C° 0 mm 3 mps 757 mmHg 85%
    07:00 +5°C° 0 mm 3 mps 757 mmHg 83%
    08:00 +9°C° 0 mm 3 mps 757 mmHg 74%
    09:00 +11°C° 0 mm 3 mps 757 mmHg 65%
    10:00 +14°C° 0 mm 3 mps 757 mmHg 56%
    11:00 +14°C° 0 mm 3 mps 756 mmHg 54%
    12:00 +16°C° 0 mm 3 mps 756 mmHg 53%
    13:00 +16°C° 0 mm 3 mps 756 mmHg 52%
    14:00 +16°C° 0 mm 3 mps 756 mmHg 56%
    15:00 +14°C° 0 mm 4 mps 755 mmHg 60%
    16:00 +14°C° 0 mm 4 mps 755 mmHg 64%
    17:00 +12°C° 0 mm 4 mps 755 mmHg 72%
    18:00 +10°C° 0 mm 4 mps 756 mmHg 80%
    19:00 +7°C° 0 mm 4 mps 756 mmHg 87%
    20:00 +7°C° 0 mm 4 mps 756 mmHg 88%
    21:00 +7°C° 0 mm 4 mps 756 mmHg 89%
    22:00 +6°C° 0 mm 4 mps 756 mmHg 90%
    23:00 +6°C° 0 mm 4 mps 756 mmHg 90%

    Day after tomorrow, 24 February, Friday

    Time Temperature Precipitation Wind Pressure Humidity
    00:00 +6°C° 0 mm 4 mps 756 mmHg 91%
    01:00 +6°C° 0 mm 4 mps 756 mmHg 91%
    02:00 +6°C° 0 mm 4 mps 756 mmHg 91%
    03:00 +6°C° 0 mm 5 mps 755 mmHg 90%
    04:00 +6°C° 0 mm 5 mps 755 mmHg 89%
    05:00 +6°C° 0 mm 5 mps 755 mmHg 88%
    06:00 +6°C° 0 mm 5 mps 755 mmHg 86%
    07:00 +6°C° 0 mm 5 mps 755 mmHg 85%
    08:00 +9°C° 0 mm 5 mps 755 mmHg 78%
    09:00 +12°C° 0 mm 5 mps 755 mmHg 72%
    10:00 +14°C° 0 mm 5 mps 755 mmHg 65%
    11:00 +15°C° 0 mm 6 mps 754 mmHg 62%
    12:00 +16°C° 0 mm 6 mps 754 mmHg 59%
    13:00 +17°C° 0 mm 7 mps 753 mmHg 56%
    14:00 +17°C° 0 mm 7 mps 753 mmHg 60%
    15:00 +16°C° 0 mm 7 mps 752 mmHg 63%
    16:00 +16°C° 0 mm 7 mps 752 mmHg 67%
    17:00 +14°C° 0.1 mm 7 mps 752 mmHg 72%
    18:00 +12°C° 0.1 mm 7 mps 752 mmHg 78%
    19:00 +10°C° 0.1 mm 8 mps 752 mmHg 83%
    20:00 +10°C° 0.2 mm 7 mps 752 mmHg 82%
    21:00 +10°C° 0.2 mm 7 mps 752 mmHg 81%
    22:00 +10°C° 0.2 mm 7 mps 752 mmHg 80%
    23:00 +10°C° 0.8 mm 8 mps 752 mmHg 80%

    25 February, Saturday

    Time Temperature Precipitation Wind Pressure Humidity
    00:00 +10°C° 0.8 mm 8 mps 751 mmHg 80%
    01:00 +10°C° 0.8 mm 9 mps 751 mmHg 80%
    02:00 +10°C° 0.6 mm 8 mps 751 mmHg 80%
    03:00 +10°C° 0.6 mm 8 mps 750 mmHg 80%
    04:00 +11°C° 0.6 mm 7 mps 750 mmHg 80%
    05:00 +11°C° 1.2 mm 7 mps 750 mmHg 82%
    06:00 +11°C° 1.2 mm 7 mps 750 mmHg 84%
    07:00 +11°C° 1.2 mm 7 mps 750 mmHg 85%
    08:00 +11°C° 1 mm 6 mps 750 mmHg 84%
    09:00 +13°C° 1 mm 5 mps 751 mmHg 83%
    10:00 +13°C° 1 mm 4 mps 751 mmHg 83%
    11:00 +14°C° 1.1 mm 4 mps 751 mmHg 80%
    12:00 +15°C° 1.1 mm 4 mps 751 mmHg 77%
    13:00 +15°C° 1.1 mm 4 mps 751 mmHg 74%
    14:00 +15°C° 2 mm 4 mps 752 mmHg 77%
    15:00 +14°C° 2 mm 5 mps 752 mmHg 80%
    16:00 +13°C° 2 mm 5 mps 752 mmHg 84%
    17:00 +13°C° 1.7 mm 5 mps 753 mmHg 85%
    18:00 +12°C° 1.7 mm 5 mps 754 mmHg 87%
    19:00 +10°C° 1.7 mm 5 mps 754 mmHg 89%
    20:00 +10°C° 1.1 mm 5 mps 755 mmHg 88%
    21:00 +9°C° 1.1 mm 5 mps 755 mmHg 88%
    22:00 +9°C° 1.1 mm 5 mps 756 mmHg 88%
    23:00 +9°C° 0.9 mm 5 mps 756 mmHg 87%

    26 February, Sunday

    Time Temperature Precipitation Wind Pressure Humidity
    00:00 +8°C° 0.9 mm 5 mps 756 mmHg 87%
    01:00 +8°C° 0.9 mm 5 mps 756 mmHg 87%
    02:00 +8°C° 0.4 mm 4 mps 756 mmHg 87%
    03:00 +8°C° 0.4 mm 4 mps 756 mmHg 87%
    04:00 +7°C° 0.4 mm 4 mps 756 mmHg 87%
    05:00 +7°C° 0.2 mm 4 mps 756 mmHg 86%
    06:00 +8°C° 0.2 mm 3 mps 756 mmHg 86%
    07:00 +8°C° 0.2 mm 3 mps 757 mmHg 85%
    08:00 +10°C° 0 mm 3 mps 757 mmHg 81%
    09:00 +12°C° 0 mm 3 mps 757 mmHg 76%
    10:00 +15°C° 0 mm 2 mps 757 mmHg 71%
    11:00 +16°C° 0.1 mm 2 mps 757 mmHg 68%
    12:00 +17°C° 0.1 mm 2 mps 757 mmHg 65%
    13:00 +19°C° 0.1 mm 2 mps 756 mmHg 61%
    14:00 +18°C° 0 mm 2 mps 756 mmHg 65%
    15:00 +17°C° 0 mm 3 mps 756 mmHg 68%
    16:00 +17°C° 0 mm 3 mps 756 mmHg 72%
    17:00 +14°C° 0 mm 3 mps 756 mmHg 78%
    18:00 +14°C° 0 mm 2 mps 756 mmHg 83%
    19:00 +12°C° 0 mm 2 mps 756 mmHg 89%
    20:00 +12°C° 0 mm 2 mps 756 mmHg 89%
    21:00 +10°C° 0 mm 2 mps 757 mmHg 90%
    22:00 +11°C° 0 mm 1 mps 757 mmHg 90%
    23:00 +10°C° 0 mm 2 mps 757 mmHg 90%

    27 February, Monday

    Time Temperature Precipitation Wind Pressure Humidity
    00:00 +10°C° 0 mm 2 mps 757 mmHg 89%
    01:00 +9°C° 0 mm 2 mps 756 mmHg 89%
    02:00 +9°C° 0 mm 2 mps 756 mmHg 89%
    03:00 +10°C° 0 mm 1 mps 756 mmHg 89%
    04:00 +10°C° 0 mm 1 mps 756 mmHg 89%
    05:00 +10°C° 0 mm 1 mps 756 mmHg 88%
    06:00 +10°C° 0 mm 1 mps 756 mmHg 87%
    07:00 +10°C° 0 mm 1 mps 757 mmHg 85%
    08:00 +12°C° 0 mm 1 mps 757 mmHg 78%
    09:00 +15°C° 0 mm 1 mps 757 mmHg 71%
    10:00 +18°C° 0 mm 1 mps 757 mmHg 64%
    11:00 +18°C° 0 mm 1 mps 756 mmHg 63%
    12:00 +18°C° 0 mm 2 mps 756 mmHg 62%
    13:00 +18°C° 0 mm 2 mps 756 mmHg 60%
    14:00 +18°C° 0 mm 3 mps 756 mmHg 64%
    15:00 +17°C° 0 mm 3 mps 756 mmHg 68%
    16:00 +17°C° 0 mm 3 mps 755 mmHg 72%
    17:00 +14°C° 0 mm 3 mps 756 mmHg 79%
    18:00 +13°C° 0 mm 2 mps 756 mmHg 86%
    19:00 +10°C° 0 mm 2 mps 756 mmHg 93%
    20:00 +11°C° 0 mm 1 mps 756 mmHg 93%
    21:00 +11°C° 0 mm 1 mps 756 mmHg 93%
    22:00 +10°C° 0 mm 1 mps 756 mmHg 92%
    23:00 +10°C° 0 mm 1 mps 756 mmHg 92%
    Show more